OBJECT B, 62726

Orbit data source: Space-Track

You're viewing an Uncataloged Satellite

Recently launched and/or uncataloged satellites may have evolving metadata. Metadata may include but not limited to: Owner, Maufacturer, Bus, Motor, and Mission.

OBJECT B, 62726 is a Chinese satellite in SSO that was launched on Fri, 17 Jan 2025 UTC via a CHANG ZHENG 2D launch vehicle from the Jiuquan Satellite Launch Center, China (JSC). Unknown objects in Earth's orbit typically refer to objects detected orbiting the Earth but have not yet been identified or cataloged. These objects could be anything from previously untracked satellites, spent rocket stages, debris from satellite collisions, or even natural meteoroids temporarily captured by Earth's gravity.

Loading next visibility...
Identifier
62726, 2025-012B
Orbit
SSO
Last TLE update
12 hours ago
Origin
Flag of CNJHQJ/YINHE (CN / PRC)
Manufacturer
Yinhe
Mission
Operational Civil Imaging
Bus & Motor
TIANLU, Unknown motor
Mass
~100 kg wet, ~100 kg dry
Launch date (UTC)
2025-01-17 (5 months ago)
Launch vehicle
CHANG ZHENG 2D
Launch site
Jiuquan Satellite Launch Center, China (JSC)
Object type
Unknown
Shape & HBR
Box + 2 Pan, 2 m
Radar Cross Section
1.475 m², Large (>1 m²)

Expand to show TLE details & history

TLE from 12 hours ago
0 OBJECT B
1 62726U 25012B   25182.76708512  .00003123  00000-0  16151-3 0  9993
2 62726  97.4622 256.0419 0011242  64.2391 296.0002 15.16943966 25058
Epoch: 2025-07-01T18:24Z
TLE epoch observation values (Epoch: 2025-07-01T18:24:36.154Z)
Latitude
0.00006°
Longitude
59.83343°
Altitude
514.777 km
Speed
7.608 km/s
True Right ascension
17h 04m 10s
True Declination
0° 00' 00"
Sunlit
Object was in full shadow at epoch
Visualization orbit readout
Latitude
41.17932°
Longitude
-113.14393°
Altitude
519.215 km
Speed
7.609 km/s
Apparent Right ascension
05h 39m 43s
Apparent Declination
2° 32' 40"
Sunlit
Object is in daylight
Visualization observer readout
Local Sidereal Time
17:47:38
Azimuth
2.929° NNE
Elevation
-47.501°
Doppler factor
1
Orbital elements
Apogee altitude
519.801 km
Perigee altitude
504.31 km
Semi-major axis
6,890.192 km
Eccentricity
0.00112
Inclination
97.4622°
RAAN
256.0419°
Arg. of periapsis
64.2391°
True anomaly
Unknown
Mean anomaly
296.0002°
Eccentric anomaly
Unknown
Mean motion
3.79486 °/min
Orbital period
94.87 mins
BSTAR
0.00016151
Loading maneuver chart data...
Loading SW <> Apogee altitude chart data...
Loading historical data...
Loading historical data...
Loading historical data...
Loading historical data...
Loading historical data...
Loading historical data...
Loading historical data...
Other satellites on launch #12 in the year 2025 (2025-01-17 UTC)

OBJECT B Visibility forecast

Observer location: undefined°, undefined°

Span
Click to sort rows by Start time (UTC) header in descending order
Start Az.
Max El. time (UTC)
Max El. Az.
Max El.
End time (UTC)
End Az.
5 mins2025-07-02 17:08:57.747Z42.541° NE2025-07-02 17:11:57.747Z110.021° ESE24.494°2025-07-02 17:13:57.747Z149.48° SSE
5 mins2025-07-03 05:22:57.747Z207.231° SW2025-07-03 05:24:57.747Z273.768° WNW32.271°2025-07-03 05:27:57.747Z331.221° NNW
|